Weather History for Logan, UT

Change the Weather History Date:

Monday, September 24, 2012

  Actual Average Record
Temperature  
Mean Temperature 57 °F -  
Max Temperature 68 °F 72 °F 90 °F (2001)
Min Temperature 48 °F 40 °F 27 °F (2000)
Degree Days  
Heating Degree Days 8    
Growing Degree Days 7 (Base 50)    
Moisture  
Dew Point 45 °F    
Average Humidity 62    
Maximum Humidity 83    
Minimum Humidity 39    
Precipitation  
Precipitation 0.00 in - - ()
Sea Level Pressure  
Sea Level Pressure 29.98 in    
Wind  
Wind Speed 6 mph (WNW)    
Max Wind Speed 17 mph    
Max Gust Speed 18 mph    
Visibility 10 miles    
Events Rain    
Averages and records for this station are not official NWS values.
T = Trace of Precipitation, MM = Missing Value Source: NWS Daily Summary

Daily Weather History Graph

Daily Weather History Graph

Search for Another Location

Airport:

Trip Planner

Search our weather history database for the weather conditions in past years. The results will help you decide how hot, cold, wet, or windy it might be!

Date:

Astronomy

Sep. 24, 2012 Rise Set
Actual Time 7:17 AM MDT 7:20 PM MDT
Civil Twilight 6:49 AM MDT 7:47 PM MDT
Nautical Twilight 6:17 AM MDT 8:20 PM MDT
Astronomical Twilight 5:44 AM MDT 8:53 PM MDT
Moon 4:12 PM MDT (9/24) 1:33 AM MDT (9/24)
Length of Visible Light 12h 58m
Length of Day
12h 02m
Waxing Gibbous, 71% of the Moon is Illuminated
Sep 24
Waxing Gibbous
Sep 29
Full
Oct 8
Last Quarter
Oct 15
New
Oct 21
First Quarter

Hourly Weather History & Observations

Time (MDT) Temp. Dew Point Humidity Pressure Visibility Wind Dir Wind Speed Gust Speed Precip Events Conditions
12:51 AM 62.1 °F 39.9 °F 44% 29.98 in 10.0 mi WNW 5.8 mph - N/A   Overcast
1:51 AM 59.0 °F 46.9 °F 64% 30.00 in 10.0 mi ESE 5.8 mph - 0.00 in Rain Light Rain
2:51 AM 60.1 °F 46.0 °F 60% 29.96 in 10.0 mi NNE 17.3 mph - 0.00 in   Overcast
3:51 AM 55.0 °F 48.9 °F 80% 29.98 in 10.0 mi NNW 5.8 mph - N/A   Partly Cloudy
4:51 AM 54.0 °F 48.9 °F 83% 29.97 in 10.0 mi SSE 3.5 mph - N/A   Partly Cloudy
5:51 AM 55.0 °F 48.0 °F 77% 29.97 in 10.0 mi SSE 3.5 mph - N/A   Clear
6:51 AM 53.1 °F 48.0 °F 83% 29.99 in 10.0 mi SSW 3.5 mph - N/A   Clear
7:51 AM 55.0 °F 48.0 °F 77% 30.01 in 10.0 mi Calm Calm - N/A   Clear
8:51 AM 57.0 °F 48.9 °F 74% 30.02 in 10.0 mi Calm Calm - N/A   Overcast
9:51 AM 59.0 °F 48.0 °F 67% 30.02 in 10.0 mi WSW 3.5 mph - N/A   Mostly Cloudy
10:51 AM 63.0 °F 46.9 °F 56% 30.02 in 10.0 mi Calm Calm - N/A   Scattered Clouds
11:51 AM 64.0 °F 45.0 °F 50% 30.01 in 10.0 mi SSE 5.8 mph - N/A   Partly Cloudy
12:51 PM 66.9 °F 45.0 °F 45% 29.98 in 10.0 mi NNE 5.8 mph - N/A   Mostly Cloudy
1:51 PM 66.0 °F 44.1 °F 45% 29.96 in 10.0 mi NNE 6.9 mph - N/A   Overcast
2:51 PM 66.9 °F 45.0 °F 45% 29.94 in 10.0 mi WNW 11.5 mph 18.4 mph N/A   Mostly Cloudy
3:51 PM 66.9 °F 43.0 °F 42% 29.94 in 10.0 mi WNW 5.8 mph - N/A   Overcast
4:51 PM 66.9 °F 41.0 °F 39% 29.93 in 10.0 mi WNW 15.0 mph - N/A   Scattered Clouds
5:51 PM 64.9 °F 43.0 °F 45% 29.94 in 10.0 mi WNW 9.2 mph - N/A   Scattered Clouds
7:51 PM 57.9 °F 45.0 °F 62% 29.96 in 10.0 mi East 4.6 mph - N/A   Clear
8:51 PM 57.0 °F 44.1 °F 62% 29.97 in 10.0 mi Calm Calm - N/A   Clear
9:51 PM 55.9 °F 44.1 °F 64% 29.96 in 10.0 mi SSW 6.9 mph - N/A   Clear
10:51 PM 48.9 °F 43.0 °F 80% 29.97 in 10.0 mi North 3.5 mph - N/A   Clear
11:51 PM 51.1 °F 43.0 °F 74% 29.96 in 10.0 mi Calm Calm - N/A   Clear